Location: Rumah Dana
(3.1167°N, 113.0167°E)
Time: 04:54:59
(UTC+00:00)

BLOCK DM-SL R/B - Pass Details

Date: 20 January 2026
Orbit: 237 x 25087 km, 0.2° (Epoch: 10 February)

Event Time Altitude Azimuth Distance (km) Brightness Sun altitude
Rises 10:11:28 0° 262° (W) 2,584 6.8 5.4°
Reaches altitude 10° 10:12:43 10° 259° (W) 2,034 6.5 5.1°
Maximum altitude 10:16:52 72° 174° (S) 1,339 3.4 4.1°
Drops below altitude 10° 10:44:09 10° 92° (E) 11,200 7.3 -2.3°
Sets 11:23:31 0° 91° (E) 20,346 8.6 -11.5°
